Time,TemperatureF,DewpointF,PressureIn,WindDirection,WindDirectionDegrees,WindSpeedMPH,WindSpeedGustMPH,Humidity,HourlyPrecipIn,Conditions,Clouds,dailyrainin,SoftwareType,DateUTC
2013-08-12 00:02:00,62.0,61.0,30.02,SSW,198,0.0,0.0,95,0.00,,,0.01,,2013-08-12 05:02:00,
2013-08-12 00:11:00,61.0,60.0,30.01,SSW,198,0.0,0.0,95,0.00,,,0.01,,2013-08-12 05:11:00,
2013-08-12 00:22:00,61.0,60.0,30.01,SSW,198,0.0,0.0,95,0.00,,,0.01,,2013-08-12 05:22:00,
2013-08-12 00:32:00,61.0,60.0,30.01,SSW,198,0.0,0.0,96,0.00,,,0.01,,2013-08-12 05:32:00,
2013-08-12 00:43:00,61.0,60.0,30.01,SSW,198,0.0,1.0,96,0.01,,,0.02,,2013-08-12 05:43:00,
2013-08-12 00:52:00,61.0,60.0,30.01,SSW,198,0.0,0.0,96,0.01,,,0.02,,2013-08-12 05:52:00,
2013-08-12 01:01:00,61.0,60.0,30.01,SSW,198,0.0,0.0,96,0.01,,,0.02,,2013-08-12 06:01:00,
2013-08-12 01:11:00,61.0,60.0,30.01,SSW,198,0.0,0.0,96,0.01,,,0.02,,2013-08-12 06:11:00,
2013-08-12 01:22:00,60.0,59.0,30.01,SSW,198,0.0,0.0,96,0.01,,,0.02,,2013-08-12 06:22:00,
2013-08-12 01:32:00,60.0,59.0,30.00,SSW,198,0.0,0.0,96,0.01,,,0.02,,2013-08-12 06:32:00,
2013-08-12 01:42:00,61.0,60.0,30.00,SSW,198,0.0,0.0,96,0.00,,,0.02,,2013-08-12 06:42:00,
2013-08-12 01:52:00,60.0,59.0,30.00,SSW,198,0.0,0.0,96,0.00,,,0.02,,2013-08-12 06:52:00,
2013-08-12 02:01:00,60.0,59.0,30.00,SSW,198,0.0,0.0,96,0.00,,,0.02,,2013-08-12 07:01:00,
2013-08-12 02:12:00,60.0,59.0,30.00,SSW,198,0.0,0.0,96,0.00,,,0.02,,2013-08-12 07:12:00,
2013-08-12 02:22:00,59.0,58.0,29.99,SSW,198,0.0,0.0,95,0.00,,,0.02,,2013-08-12 07:22:00,
2013-08-12 02:33:00,59.0,58.0,29.99,SSW,198,0.0,0.0,96,0.00,,,0.02,,2013-08-12 07:33:00,
2013-08-12 02:43:00,58.0,57.0,29.99,SSW,198,0.0,0.0,96,0.00,,,0.02,,2013-08-12 07:43:00,
2013-08-12 02:52:00,58.0,57.0,29.99,SSW,198,0.0,0.0,96,0.00,,,0.02,,2013-08-12 07:52:00,
2013-08-12 03:02:00,58.0,57.0,29.99,SSW,198,0.0,0.0,96,0.00,,,0.02,,2013-08-12 08:02:00,
2013-08-12 03:11:00,59.0,58.0,29.98,SSW,198,0.0,1.0,97,0.00,,,0.02,,2013-08-12 08:11:00,
2013-08-12 03:22:00,58.0,57.0,29.98,SSW,198,0.0,0.0,97,0.00,,,0.02,,2013-08-12 08:22:00,
2013-08-12 03:33:00,58.0,57.0,29.98,SSW,198,0.0,0.0,96,0.00,,,0.02,,2013-08-12 08:33:00,
2013-08-12 03:43:00,58.0,57.0,29.98,SSW,198,0.0,0.0,96,0.00,,,0.02,,2013-08-12 08:43:00,
2013-08-12 03:53:00,57.0,56.0,29.98,SSW,198,0.0,0.0,96,0.00,,,0.02,,2013-08-12 08:53:00,
2013-08-12 04:02:00,57.0,56.0,29.97,SSW,198,0.0,0.0,96,0.00,,,0.02,,2013-08-12 09:02:00,
2013-08-12 04:11:00,57.0,56.0,29.98,SSW,198,0.0,0.0,97,0.00,,,0.02,,2013-08-12 09:11:00,
2013-08-12 04:22:00,57.0,56.0,29.97,SSW,198,0.0,0.0,96,0.00,,,0.02,,2013-08-12 09:22:00,
2013-08-12 04:32:00,57.0,56.0,29.97,SSW,198,0.0,1.0,97,0.00,,,0.02,,2013-08-12 09:32:00,
2013-08-12 04:43:00,57.0,56.0,29.97,SSW,198,0.0,1.0,97,0.00,,,0.02,,2013-08-12 09:43:00,
2013-08-12 04:53:00,56.0,55.0,29.97,SSW,198,0.0,0.0,97,0.00,,,0.02,,2013-08-12 09:53:00,
2013-08-12 05:02:00,56.0,55.0,29.97,SSW,198,0.0,1.0,97,0.00,,,0.02,,2013-08-12 10:02:00,
2013-08-12 05:12:00,56.0,55.0,29.96,SSW,198,0.0,1.0,97,0.00,,,0.02,,2013-08-12 10:12:00,
2013-08-12 05:22:00,56.0,55.0,29.97,SSW,198,0.0,0.0,97,0.00,,,0.02,,2013-08-12 10:22:00,
2013-08-12 05:32:00,56.0,55.0,29.96,SSW,198,0.0,0.0,97,0.00,,,0.02,,2013-08-12 10:32:00,
2013-08-12 05:43:00,56.0,55.0,29.97,SSW,199,0.0,1.0,97,0.00,,,0.02,,2013-08-12 10:43:00,
2013-08-12 05:52:00,56.0,55.0,29.96,SSW,199,0.0,0.0,97,0.00,,,0.02,,2013-08-12 10:52:00,
2013-08-12 06:02:00,56.0,55.0,29.96,SSW,199,0.0,0.0,97,0.00,,,0.02,,2013-08-12 11:02:00,
2013-08-12 06:12:00,56.0,55.0,29.97,SSW,199,0.0,0.0,97,0.00,,,0.02,,2013-08-12 11:12:00,
2013-08-12 06:22:00,55.0,54.0,29.97,SSW,199,0.0,0.0,97,0.00,,,0.02,,2013-08-12 11:22:00,
2013-08-12 06:32:00,55.0,54.0,29.97,SSW,199,0.0,0.0,97,0.00,,,0.02,,2013-08-12 11:32:00,
2013-08-12 06:42:00,55.0,54.0,29.97,SSW,199,0.0,0.0,97,0.00,,,0.02,,2013-08-12 11:42:00,
2013-08-12 06:52:00,55.0,54.0,29.96,SSW,199,0.0,0.0,97,0.00,,,0.02,,2013-08-12 11:52:00,
2013-08-12 07:02:00,55.0,54.0,29.97,SSW,199,0.0,0.0,97,0.00,,,0.02,,2013-08-12 12:02:00,
2013-08-12 07:11:00,55.0,54.0,29.97,SSW,199,0.0,1.0,97,0.00,,,0.02,,2013-08-12 12:11:00,
2013-08-12 07:22:00,56.0,55.0,29.97,SSW,199,0.0,0.0,97,0.00,,,0.02,,2013-08-12 12:22:00,
2013-08-12 07:32:00,57.0,56.0,29.96,NNW,344,2.0,3.0,97,0.00,,,0.02,,2013-08-12 12:32:00,
2013-08-12 07:43:00,58.0,57.0,29.97,NW,317,0.0,4.0,97,0.00,,,0.02,,2013-08-12 12:43:00,
2013-08-12 07:52:00,58.0,57.0,29.96,North,350,1.0,3.0,97,0.00,,,0.02,,2013-08-12 12:52:00,
2013-08-12 08:01:00,59.0,58.0,29.96,North,350,0.0,2.0,97,0.00,,,0.02,,2013-08-12 13:01:00,
2013-08-12 08:11:00,60.0,59.0,29.96,NNW,346,0.0,2.0,98,0.00,,,0.02,,2013-08-12 13:11:00,
2013-08-12 08:22:00,61.0,60.0,29.96,NNW,336,1.0,2.0,97,0.00,,,0.02,,2013-08-12 13:22:00,
2013-08-12 08:32:00,62.0,61.0,29.95,NW,311,1.0,4.0,97,0.00,,,0.02,,2013-08-12 13:32:00,
2013-08-12 08:43:00,63.0,62.0,29.95,NW,311,0.0,2.0,97,0.00,,,0.02,,2013-08-12 13:43:00,
2013-08-12 08:53:00,64.0,63.0,29.96,NW,311,1.0,2.0,97,0.00,,,0.02,,2013-08-12 13:53:00,
2013-08-12 09:02:00,64.0,63.0,29.95,North,5,0.0,3.0,97,0.00,,,0.02,,2013-08-12 14:02:00,
2013-08-12 09:11:00,64.0,63.0,29.95,NNE,32,2.0,3.0,97,0.00,,,0.02,,2013-08-12 14:11:00,
2013-08-12 09:22:00,64.0,63.0,29.96,NW,321,1.0,3.0,97,0.00,,,0.02,,2013-08-12 14:22:00,
2013-08-12 09:32:00,65.0,63.0,29.96,NNW,342,3.0,4.0,92,0.00,,,0.02,,2013-08-12 14:32:00,
2013-08-12 09:42:00,67.0,64.0,29.96,NW,317,2.0,5.0,89,0.00,,,0.02,,2013-08-12 14:42:00,
2013-08-12 09:52:00,68.0,64.0,29.96,NE,39,1.0,5.0,87,0.00,,,0.02,,2013-08-12 14:52:00,
2013-08-12 10:02:00,68.0,63.0,29.96,North,5,3.0,8.0,84,0.00,,,0.02,,2013-08-12 15:02:00,
2013-08-12 10:11:00,68.0,63.0,29.96,NW,320,0.0,6.0,84,0.00,,,0.02,,2013-08-12 15:11:00,
2013-08-12 10:22:00,69.0,63.0,29.96,NE,52,2.0,4.0,82,0.00,,,0.02,,2013-08-12 15:22:00,
2013-08-12 10:33:00,69.0,63.0,29.95,ENE,63,2.0,5.0,81,0.00,,,0.02,,2013-08-12 15:33:00,
2013-08-12 10:43:00,70.0,62.0,29.96,NNW,342,3.0,6.0,76,0.00,,,0.02,,2013-08-12 15:43:00,
2013-08-12 10:52:00,71.0,62.0,29.95,NE,55,2.0,6.0,74,0.00,,,0.02,,2013-08-12 15:52:00,
2013-08-12 11:01:00,71.0,62.0,29.95,WSW,252,2.0,5.0,74,0.00,,,0.02,,2013-08-12 16:01:00,
2013-08-12 11:11:00,71.0,62.0,29.95,NNE,15,1.0,4.0,73,0.00,,,0.02,,2013-08-12 16:11:00,
2013-08-12 11:22:00,72.0,62.0,29.95,NE,40,1.0,6.0,71,0.00,,,0.01,,2013-08-12 16:22:00,
2013-08-12 11:33:00,72.0,62.0,29.95,ENE,65,2.0,6.0,70,0.00,,,0.01,,2013-08-12 16:33:00,
2013-08-12 11:42:00,72.0,61.0,29.95,SSW,209,2.0,6.0,68,0.00,,,0.01,,2013-08-12 16:42:00,
2013-08-12 11:52:00,73.0,62.0,29.95,WNW,303,4.0,7.0,68,0.00,,,0.01,,2013-08-12 16:52:00,
2013-08-12 12:02:00,74.0,62.0,29.95,North,355,0.0,5.0,66,0.00,,,0.01,,2013-08-12 17:02:00,
2013-08-12 12:11:00,73.0,62.0,29.94,West,277,2.0,5.0,68,0.00,,,0.01,,2013-08-12 17:11:00,
2013-08-12 12:22:00,73.0,61.0,29.94,NW,309,3.0,7.0,67,0.00,,,0.01,,2013-08-12 17:22:00,
2013-08-12 12:32:00,73.0,61.0,29.94,North,9,6.0,10.0,65,0.01,,,0.02,,2013-08-12 17:32:00,
2013-08-12 12:43:00,74.0,61.0,29.94,West,279,8.0,14.0,63,0.01,,,0.02,,2013-08-12 17:43:00,
2013-08-12 12:52:00,74.0,61.0,29.94,NW,306,3.0,8.0,64,0.01,,,0.02,,2013-08-12 17:52:00,
2013-08-12 13:02:00,74.0,59.0,29.94,West,269,5.0,11.0,59,0.01,,,0.02,,2013-08-12 18:02:00,
2013-08-12 13:11:00,74.0,60.0,29.94,NNW,341,3.0,11.0,62,0.01,,,0.02,,2013-08-12 18:11:00,
2013-08-12 13:24:00,73.0,59.0,29.94,NW,323,4.0,10.0,61,0.01,,,0.02,,2013-08-12 18:24:00,
2013-08-12 13:32:00,75.0,59.0,29.93,NNW,337,4.0,8.0,57,0.00,,,0.02,,2013-08-12 18:32:00,
2013-08-12 13:43:00,75.0,57.0,29.93,NW,304,5.0,15.0,53,0.00,,,0.02,,2013-08-12 18:43:00,
2013-08-12 13:52:00,75.0,56.0,29.93,NW,309,7.0,15.0,51,0.00,,,0.02,,2013-08-12 18:52:00,
2013-08-12 14:02:00,76.0,57.0,29.93,WNW,290,5.0,12.0,51,0.00,,,0.02,,2013-08-12 19:02:00,
2013-08-12 14:11:00,77.0,56.0,29.93,NW,310,6.0,13.0,49,0.00,,,0.02,,2013-08-12 19:11:00,
2013-08-12 14:22:00,76.0,55.0,29.93,WNW,300,7.0,14.0,49,0.00,,,0.02,,2013-08-12 19:22:00,
2013-08-12 14:33:00,75.0,57.0,29.93,NW,311,4.0,10.0,53,0.00,,,0.02,,2013-08-12 19:33:00,
2013-08-12 14:43:00,76.0,57.0,29.93,NW,318,6.0,11.0,51,0.00,,,0.02,,2013-08-12 19:43:00,
2013-08-12 14:52:00,77.0,55.0,29.93,WNW,298,7.0,13.0,47,0.00,,,0.02,,2013-08-12 19:52:00,
2013-08-12 15:02:00,77.0,56.0,29.93,NNW,340,5.0,10.0,48,0.00,,,0.02,,2013-08-12 20:02:00,
2013-08-12 15:11:00,76.0,57.0,29.93,NW,305,7.0,16.0,51,0.00,,,0.02,,2013-08-12 20:11:00,
2013-08-12 15:22:00,76.0,57.0,29.93,North,350,5.0,11.0,52,0.00,,,0.02,,2013-08-12 20:22:00,
2013-08-12 15:32:00,77.0,56.0,29.92,NW,313,5.0,12.0,49,0.00,,,0.02,,2013-08-12 20:32:00,
2013-08-12 15:42:00,77.0,55.0,29.92,NNW,346,5.0,10.0,46,0.00,,,0.02,,2013-08-12 20:42:00,
2013-08-12 15:52:00,77.0,53.0,29.92,NW,317,4.0,11.0,44,0.00,,,0.02,,2013-08-12 20:52:00,
2013-08-12 16:01:00,78.0,54.0,29.92,North,350,4.0,12.0,44,0.00,,,0.02,,2013-08-12 21:01:00,
2013-08-12 16:12:00,78.0,52.0,29.92,NNW,340,4.0,10.0,41,0.00,,,0.02,,2013-08-12 21:12:00,
2013-08-12 16:22:00,78.0,54.0,29.91,North,350,6.0,12.0,43,0.00,,,0.02,,2013-08-12 21:22:00,
2013-08-12 16:32:00,77.0,53.0,29.92,North,355,6.0,15.0,44,0.00,,,0.02,,2013-08-12 21:32:00,
2013-08-12 16:43:00,76.0,54.0,29.91,NNW,334,4.0,11.0,46,0.00,,,0.02,,2013-08-12 21:43:00,
2013-08-12 16:52:00,77.0,55.0,29.91,North,5,5.0,11.0,47,0.00,,,0.02,,2013-08-12 21:52:00,
2013-08-12 17:02:00,77.0,55.0,29.91,NNW,346,5.0,12.0,46,0.00,,,0.02,,2013-08-12 22:02:00,
2013-08-12 17:11:00,77.0,56.0,29.92,NW,315,5.0,10.0,48,0.00,,,0.02,,2013-08-12 22:11:00,
2013-08-12 17:22:00,77.0,56.0,29.91,NW,310,3.0,8.0,48,0.00,,,0.02,,2013-08-12 22:22:00,
2013-08-12 17:32:00,77.0,53.0,29.92,NNW,334,5.0,11.0,44,0.00,,,0.02,,2013-08-12 22:32:00,
2013-08-12 17:43:00,77.0,53.0,29.92,NE,35,3.0,11.0,44,0.00,,,0.02,,2013-08-12 22:43:00,
2013-08-12 17:53:00,77.0,53.0,29.92,West,280,4.0,9.0,44,0.00,,,0.02,,2013-08-12 22:53:00,
2013-08-12 18:02:00,77.0,55.0,29.92,NNW,346,3.0,10.0,46,0.00,,,0.02,,2013-08-12 23:02:00,
2013-08-12 18:11:00,77.0,55.0,29.91,North,360,5.0,9.0,46,0.00,,,0.02,,2013-08-12 23:11:00,
2013-08-12 18:22:00,76.0,54.0,29.91,North,360,3.0,10.0,46,0.00,,,0.02,,2013-08-12 23:22:00,
2013-08-12 18:43:00,76.0,54.0,29.92,WNW,301,4.0,10.0,46,0.00,,,0.02,,2013-08-12 23:43:00,
2013-08-12 18:53:00,74.0,53.0,29.92,NW,306,3.0,9.0,48,0.00,,,0.02,,2013-08-12 23:53:00,
2013-08-12 19:12:00,73.0,54.0,29.92,NNW,331,2.0,6.0,52,0.00,,,0.02,,2013-08-13 00:12:00,
2013-08-12 19:24:00,72.0,55.0,29.93,NNE,15,3.0,8.0,55,0.00,,,0.02,,2013-08-13 00:24:00,
2013-08-12 19:45:00,71.0,56.0,29.95,North,350,2.0,7.0,60,0.00,,,0.02,,2013-08-13 00:45:00,
2013-08-12 19:53:00,69.0,58.0,29.96,WNW,295,5.0,9.0,67,0.00,,,0.02,,2013-08-13 00:53:00,
2013-08-12 20:13:00,66.0,58.0,29.96,NNW,331,3.0,10.0,76,0.00,,,0.02,,2013-08-13 01:13:00,
2013-08-12 20:23:00,65.0,58.0,29.96,North,350,2.0,7.0,79,0.00,,,0.02,,2013-08-13 01:23:00,
2013-08-12 20:42:00,64.0,58.0,29.96,North,355,1.0,4.0,81,0.00,,,0.02,,2013-08-13 01:42:00,
2013-08-12 20:55:00,64.0,58.0,29.96,North,355,2.0,4.0,82,0.00,,,0.02,,2013-08-13 01:55:00,
2013-08-12 21:11:00,64.0,59.0,29.97,NNW,328,2.0,8.0,83,0.00,,,0.02,,2013-08-13 02:11:00,
2013-08-12 21:21:00,63.0,58.0,29.98,NW,311,1.0,5.0,83,0.00,,,0.02,,2013-08-13 02:21:00,
2013-08-12 21:43:00,62.0,57.0,29.99,North,350,2.0,7.0,83,0.00,,,0.02,,2013-08-13 02:43:00,
2013-08-12 21:52:00,62.0,56.0,30.00,NE,49,3.0,9.0,81,0.00,,,0.02,,2013-08-13 02:52:00,
2013-08-12 22:11:00,62.0,56.0,30.00,North,5,3.0,6.0,81,0.00,,,0.02,,2013-08-13 03:11:00,
2013-08-12 22:22:00,61.0,55.0,30.01,NNW,346,3.0,8.0,81,0.00,,,0.02,,2013-08-13 03:22:00,
2013-08-12 22:43:00,60.0,54.0,30.01,NNE,26,2.0,9.0,80,0.00,,,0.02,,2013-08-13 03:43:00,
2013-08-12 22:54:00,60.0,54.0,30.02,NE,42,0.0,5.0,80,0.00,,,0.02,,2013-08-13 03:54:00,
2013-08-12 23:12:00,59.0,53.0,30.02,North,5,2.0,5.0,81,0.00,,,0.02,,2013-08-13 04:12:00,
2013-08-12 23:23:00,59.0,53.0,30.02,NE,43,1.0,4.0,80,0.00,,,0.02,,2013-08-13 04:23:00,
2013-08-12 23:42:00,58.0,52.0,30.02,NNW,346,0.0,5.0,80,0.00,,,0.02,,2013-08-13 04:42:00,
2013-08-12 23:53:00,57.0,51.0,30.03,North,5,1.0,4.0,81,0.00,,,0.02,,2013-08-13 04:53:00,